Location: Invercargill
(46.4000°S, 168.3500°E)
Time: 06:46:09
(UTC+13:00)

Courier 1B Rocket - All Passes

Search period start: 20 October 2019 00:00
Search period end: 30 October 2019 00:00
Orbit: 920 x 1202 km, 28.2° (Epoch: 19 October)

Date Brightness Start Highest point End Pass type
(mag) Time Alt. Az. Time Alt. Az. Time Alt. Az.
20 Oct - 17:05:16 10° NNW 17:09:29 15° NNE 17:13:41 10° NE daylight
20 Oct - 18:56:43 10° NW 19:01:55 19° N 19:07:01 10° NE daylight
20 Oct - 20:50:25 10° NW 20:54:17 15° NNW 20:58:04 10° NNE visible
21 Oct - 16:05:36 10° N 16:08:41 13° NNE 16:11:46 10° NE daylight
21 Oct - 17:55:53 10° NW 18:01:03 19° N 18:06:11 10° NE daylight
21 Oct - 19:48:47 10° NW 19:53:30 17° N 19:58:07 10° NNE daylight
22 Oct - 16:55:20 10° NNW 17:00:12 18° N 17:05:04 10° NE daylight
22 Oct - 18:47:32 10° NW 18:52:40 19° N 18:57:45 10° NE daylight
22 Oct - 20:42:19 10° NW 20:44:59 12° NNW 20:47:36 10° N daylight
23 Oct - 15:55:10 10° NNW 15:59:22 16° NNE 16:03:37 10° NE daylight
23 Oct - 17:46:32 10° NW 17:51:48 20° N 17:57:04 10° NE daylight
23 Oct - 19:40:07 10° NW 19:44:13 15° NNW 19:48:16 10° NNE daylight
24 Oct - 14:55:38 10° N 14:58:35 13° NNE 15:01:35 10° NE daylight
24 Oct - 16:45:47 10° NW 16:50:56 19° N 16:56:07 10° NE daylight
24 Oct - 18:38:35 10° NW 18:43:23 18° N 18:48:10 10° NNE daylight
25 Oct - 15:45:20 10° NNW 15:50:05 18° N 15:54:55 10° NE daylight
25 Oct - 17:37:25 10° NW 17:42:32 19° N 17:47:42 10° NE daylight
25 Oct - 19:32:02 10° NW 19:34:54 12° NNW 19:37:44 10° N daylight
26 Oct - 14:45:17 10° NNW 14:49:17 15° NNE 14:53:22 10° NE daylight
26 Oct - 16:36:31 10° NW 16:41:40 19° N 16:46:55 10° NE daylight
26 Oct - 18:29:58 10° NW 18:34:06 15° NNW 18:38:13 10° NNE daylight
27 Oct - 13:45:56 10° N 13:48:33 12° NNE 13:51:11 10° NE daylight
27 Oct - 15:35:52 10° NW 15:40:50 19° N 15:45:54 10° NE daylight
27 Oct - 17:28:33 10° NW 17:33:16 17° N 17:38:02 10° NNE daylight
28 Oct - 14:35:32 10° NNW 14:40:01 17° N 14:44:37 10° NE daylight
28 Oct - 16:27:29 10° NW 16:32:26 19° N 16:37:29 10° NE daylight
28 Oct - 18:22:02 10° NW 18:24:47 12° NNW 18:27:34 10° N daylight
29 Oct - 13:35:36 10° NNW 13:39:15 14° NNE 13:43:00 10° NE daylight
29 Oct - 15:26:41 10° NW 15:31:35 19° N 15:36:38 10° NE daylight
29 Oct - 17:20:04 10° NW 17:24:00 15° NNW 17:27:58 10° NNE daylight
